Weather History for Key West NAF, FL

Change the Weather History Date:

Sunday, February 9, 2014

  Actual Average Record
Temperature  
Mean Temperature 76 °F -  
Max Temperature 82 °F 73 °F 83 °F (1949)
Min Temperature 69 °F 64 °F 54 °F (1958)
Cooling Degree Days 10    
Growing Degree Days 26 (Base 50)    
Moisture  
Dew Point 68 °F    
Average Humidity 85    
Maximum Humidity 94    
Minimum Humidity 58    
Precipitation  
Precipitation 0.00 in - - ()
Sea Level Pressure  
Sea Level Pressure 30.05 in    
Wind  
Wind Speed 8 mph (North)    
Max Wind Speed 15 mph    
Max Gust Speed -    
Visibility 10 miles    
Events      
Averages and records for this station are not official NWS values.
T = Trace of Precipitation, MM = Missing Value Source: NWS Daily Summary

Daily Weather History Graph

Daily Weather History Graph

Search for Another Location

Airport:

Trip Planner

Search our weather history database for the weather conditions in past years. The results will help you decide how hot, cold, wet, or windy it might be!

Date:

Astronomy

Feb. 09, 2014 Rise Set
Actual Time 7:04 AM EST 6:17 PM EST
Civil Twilight 6:41 AM EST 6:41 PM EST
Nautical Twilight 6:14 AM EST 7:08 PM EST
Astronomical Twilight 5:47 AM EST 7:34 PM EST
Moon 2:07 PM EST (2/9) 2:58 AM EST (2/9)
Length of Visible Light 12h 00m
Length of Day
11h 13m
Waxing Gibbous, 77% of the Moon is Illuminated
Feb 9
Waxing Gibbous
Feb 14
Full
Feb 22
Last Quarter
Mar 1
New
Mar 8
First Quarter

Hourly Weather History & Observations

Time (EST) Temp. Heat Index Dew Point Humidity Pressure Visibility Wind Dir Wind Speed Gust Speed Precip Events Conditions
12:25 AM 71.6 °F - 69.8 °F 94% 30.07 in 10.0 mi North 10.4 mph - N/A   Mostly Cloudy
12:53 AM 72.0 °F - 69.1 °F 91% 30.07 in 10.0 mi NNE 4.6 mph - N/A   Mostly Cloudy
1:23 AM 71.6 °F - 69.8 °F 94% 30.07 in 10.0 mi North 8.1 mph - N/A   Overcast
1:53 AM 71.1 °F - 68.0 °F 90% 30.06 in 10.0 mi NNE 6.9 mph - N/A   Overcast
2:24 AM 71.6 °F - 68.0 °F 88% 30.05 in 10.0 mi NE 3.5 mph - N/A   Scattered Clouds
2:53 AM 71.1 °F - 68.0 °F 90% 30.03 in 10.0 mi Calm Calm - N/A   Clear
3:53 AM 70.0 °F - 68.0 °F 93% 30.02 in 10.0 mi Calm Calm - N/A   Clear
4:53 AM 70.0 °F - 68.0 °F 93% 30.01 in 10.0 mi Calm Calm - N/A   Clear
5:53 AM 71.1 °F - 69.1 °F 93% 30.02 in 10.0 mi Calm Calm - N/A   Clear
5:59 AM 71.6 °F - 69.8 °F 94% 30.03 in 10.0 mi Calm Calm - N/A   Clear
6:53 AM 71.1 °F - 69.1 °F 93% 30.03 in 10.0 mi Calm Calm - N/A   Partly Cloudy
7:48 AM 71.6 °F - 69.8 °F 94% 30.05 in 9.0 mi North 12.7 mph - N/A   Mostly Cloudy
7:53 AM 72.0 °F - 70.0 °F 93% 30.05 in 10.0 mi North 11.5 mph - N/A   Mostly Cloudy
8:01 AM 71.6 °F - 69.8 °F 94% 30.06 in 10.0 mi North 11.5 mph - N/A   Mostly Cloudy
8:47 AM 71.6 °F - 68.0 °F 88% 30.07 in 10.0 mi North 12.7 mph - N/A   Mostly Cloudy
8:53 AM 72.0 °F - 68.0 °F 87% 30.07 in 10.0 mi North 12.7 mph - N/A   Mostly Cloudy
9:53 AM 75.0 °F - 69.1 °F 82% 30.10 in 10.0 mi NNE 9.2 mph - N/A   Mostly Cloudy
10:41 AM 75.2 °F - 69.8 °F 83% 30.10 in 10.0 mi NNE 9.2 mph - N/A   Mostly Cloudy
10:53 AM 75.9 °F - 69.1 °F 79% 30.09 in 10.0 mi NE 10.4 mph - N/A   Scattered Clouds
11:53 AM 79.0 °F - 68.0 °F 69% 30.06 in 10.0 mi NE 8.1 mph - N/A   Partly Cloudy
12:53 PM 82.0 °F 84.1 °F 66.0 °F 58% 30.04 in 10.0 mi NNE 4.6 mph - N/A   Partly Cloudy
1:53 PM 81.0 °F 83.0 °F 66.0 °F 60% 30.02 in 10.0 mi North 6.9 mph - N/A   Mostly Cloudy
2:53 PM 80.1 °F 82.1 °F 66.0 °F 62% 30.01 in 10.0 mi NNE 9.2 mph - N/A   Mostly Cloudy
3:53 PM 77.0 °F - 69.1 °F 76% 30.01 in 10.0 mi NNW 11.5 mph - N/A   Scattered Clouds
4:53 PM 73.9 °F - 68.0 °F 82% 30.02 in 10.0 mi North 13.8 mph - N/A   Scattered Clouds
5:05 PM 73.4 °F - 66.2 °F 78% 30.02 in 10.0 mi North 12.7 mph - N/A   Mostly Cloudy
5:53 PM 72.0 °F - 66.9 °F 84% 30.04 in 10.0 mi NNW 12.7 mph - N/A   Scattered Clouds
6:53 PM 71.1 °F - 66.0 °F 84% 30.04 in 10.0 mi NNW 12.7 mph - N/A   Mostly Cloudy
7:53 PM 71.1 °F - 66.0 °F 84% 30.06 in 10.0 mi NNW 13.8 mph - N/A   Mostly Cloudy
8:53 PM 70.0 °F - 66.0 °F 87% 30.07 in 10.0 mi NNW 15.0 mph - N/A   Mostly Cloudy
9:53 PM 70.0 °F - 66.0 °F 87% 30.06 in 10.0 mi NNW 9.2 mph - N/A   Scattered Clouds
10:03 PM 69.8 °F - 66.2 °F 88% 30.07 in 10.0 mi NNW 10.4 mph - N/A   Mostly Cloudy
10:10 PM 69.8 °F - 66.2 °F 88% 30.06 in 10.0 mi North 9.2 mph - N/A   Scattered Clouds
10:53 PM 70.0 °F - 66.0 °F 87% 30.06 in 10.0 mi North 9.2 mph - N/A   Partly Cloudy
11:37 PM 69.8 °F - 66.2 °F 88% 30.06 in 10.0 mi North 9.2 mph - N/A   Mostly Cloudy
11:53 PM 70.0 °F - 66.0 °F 87% 30.06 in 10.0 mi North 9.2 mph - N/A   Mostly Cloudy